TimeEDT,TemperatureF,Dew PointF,Humidity,Sea Level PressureIn,VisibilityMPH,Wind Direction,Wind SpeedMPH,Gust SpeedMPH,PrecipitationIn,Events,Conditions,WindDirDegrees,DateUTC
12:53 AM,53.1,48.0,83,29.74,10.0,South,5.8,-,0.00,,Mostly Cloudy,190,2014-05-04 04:53:00
1:53 AM,53.1,48.0,83,29.74,10.0,WSW,6.9,-,N/A,,Mostly Cloudy,240,2014-05-04 05:53:00
2:53 AM,54.0,48.9,83,29.73,10.0,Variable,4.6,-,N/A,,Clear,0,2014-05-04 06:53:00
3:53 AM,53.1,48.9,86,29.73,10.0,SW,5.8,-,N/A,,Partly Cloudy,220,2014-05-04 07:53:00
4:53 AM,54.0,48.0,80,29.72,10.0,SW,5.8,-,N/A,,Mostly Cloudy,230,2014-05-04 08:53:00
5:53 AM,54.0,46.9,77,29.74,10.0,WSW,10.4,17.3,N/A,,Scattered Clouds,250,2014-05-04 09:53:00
6:53 AM,55.0,45.0,69,29.74,10.0,West,9.2,19.6,N/A,,Scattered Clouds,260,2014-05-04 10:53:00
7:53 AM,55.9,45.0,67,29.74,10.0,WSW,10.4,18.4,N/A,,Scattered Clouds,250,2014-05-04 11:53:00
8:53 AM,57.0,41.0,55,29.72,10.0,West,8.1,20.7,N/A,,Mostly Cloudy,270,2014-05-04 12:53:00
9:53 AM,57.0,42.1,57,29.70,10.0,SW,9.2,21.9,N/A,,Mostly Cloudy,220,2014-05-04 13:53:00
10:53 AM,57.9,41.0,53,29.67,10.0,WSW,9.2,24.2,N/A,,Mostly Cloudy,240,2014-05-04 14:53:00
11:53 AM,57.9,43.0,58,29.64,10.0,SW,13.8,24.2,N/A,,Scattered Clouds,220,2014-05-04 15:53:00
12:53 PM,64.0,34.0,33,29.62,10.0,West,13.8,23.0,N/A,,Partly Cloudy,280,2014-05-04 16:53:00
1:53 PM,64.0,33.1,31,29.60,10.0,WSW,12.7,23.0,N/A,,Mostly Cloudy,250,2014-05-04 17:53:00
2:53 PM,62.1,35.1,37,29.60,10.0,SW,15.0,26.5,N/A,,Mostly Cloudy,220,2014-05-04 18:53:00
3:53 PM,55.9,43.0,62,29.59,10.0,SW,9.2,18.4,N/A,,Overcast,230,2014-05-04 19:53:00
4:53 PM,60.1,37.0,42,29.60,10.0,West,8.1,23.0,0.01,,Mostly Cloudy,270,2014-05-04 20:53:00
5:53 PM,62.1,36.0,38,29.60,10.0,West,8.1,17.3,N/A,,Mostly Cloudy,260,2014-05-04 21:53:00
6:53 PM,62.1,28.0,28,29.62,10.0,NW,9.2,19.6,N/A,,Mostly Cloudy,310,2014-05-04 22:53:00
7:53 PM,60.1,28.9,31,29.66,10.0,NW,11.5,23.0,N/A,,Scattered Clouds,310,2014-05-04 23:53:00
8:53 PM,57.0,32.0,39,29.69,10.0,NW,10.4,21.9,N/A,,Scattered Clouds,310,2014-05-05 00:53:00
9:53 PM,55.9,34.0,44,29.71,10.0,NW,9.2,-,N/A,,Clear,310,2014-05-05 01:53:00
10:53 PM,55.0,33.1,43,29.72,10.0,WNW,8.1,18.4,N/A,,Clear,300,2014-05-05 02:53:00
11:53 PM,55.0,33.1,43,29.72,10.0,WNW,11.5,19.6,N/A,,Overcast,300,2014-05-05 03:53:00